FW6665 Weather Reports


Display with metric or nautical units.
time (UTC)temp
F
wind
direction
speed
MPH
gust
MPH
rain 1hr
in
rain 24hr
in
rain mn
in
humidity
%
barometer
mb
20260505090204 57 298 1.0 2.0 0.00 0.00 0.00 73 1010.5
20260505085704 57 299 1.0 2.0 0.00 0.00 0.00 75 1010.5
20260505085205 56 299 1.0 2.0 0.00 0.00 0.00 75 1010.6
20260505084704 56 299 1.0 2.0 0.00 0.00 0.00 76 1010.6
20260505084210 56 300 1.0 3.0 0.00 0.00 0.00 77 1010.7
20260505083205 55 302 0.0 4.0 0.00 0.00 0.00 78 1010.6
20260505082705 55 303 0.0 4.0 0.00 0.00 0.00 79 1010.6
20260505082204 55 302 0.0 3.0 0.00 0.00 0.00 79 1010.7
20260505081704 55 302 1.0 4.0 0.00 0.00 0.00 79 1010.7
20260505081204 55 303 1.0 4.0 0.00 0.00 0.00 79 1010.6
20260505080705 55 303 1.0 4.0 0.00 0.00 0.00 78 1010.7
20260505080205 55 309 1.0 3.0 0.00 0.00 0.00 79 1010.6
20260505075705 55 305 0.0 3.0 0.00 0.00 0.00 79 1010.6
20260505075205 55 299 1.0 3.0 0.00 0.00 0.00 80 1010.6
20260505074704 55 299 0.0 3.0 0.00 0.00 0.00 81 1010.6
20260505074204 55 299 0.0 3.0 0.00 0.00 0.00 81 1010.6
20260505073705 55 299 1.0 3.0 0.00 0.00 0.00 81 1010.5
20260505073204 54 299 1.0 3.0 0.00 0.00 0.00 82 1010.5
20260505072205 54 299 1.0 3.0 0.00 0.00 0.00 82 1010.6
20260505071706 54 300 1.0 3.0 0.00 0.00 0.00 83 1010.6
20260505071204 54 300 0.0 4.0 0.00 0.00 0.00 83 1010.7
20260505070704 53 300 0.0 4.0 0.00 0.00 0.00 83 1010.8
20260505070214 53 300 1.0 4.0 0.00 0.00 0.00 84 1010.7
20260505065703 53 300 1.0 4.0 0.00 0.00 0.00 83 1010.8
20260505065204 53 288 1.0 4.0 0.00 0.00 0.00 84 1010.8
20260505064705 53 286 1.0 2.0 0.00 0.00 0.00 83 1010.8
20260505063704 52 288 0.0 3.0 0.00 0.00 0.00 83 1010.7
20260505062703 52 288 0.0 2.0 0.00 0.00 0.00 83 1010.8
20260505062205 52 288 0.0 2.0 0.00 0.00 0.00 82 1010.8
20260505061704 52 288 0.0 1.0 0.00 0.00 0.00 82 1010.9
20260505061204 52 288 0.0 1.0 0.00 0.00 0.00 82 1010.8
20260505060704 52 288 0.0 1.0 0.00 0.00 0.00 82 1010.7
20260505055205 52 288 0.0 1.0 0.00 0.00 0.00 82 1010.8
20260505054204 52 288 0.0 1.0 0.00 0.00 0.00 82 1010.7
20260505053205 52 288 0.0 1.0 0.00 0.00 0.00 82 1010.8
20260505052704 52 288 0.0 1.0 0.00 0.00 0.00 82 1010.8
20260505052205 52 288 0.0 2.0 0.00 0.00 0.00 82 1010.9
20260505051704 52 288 0.0 2.0 0.00 0.00 0.00 82 1010.8
20260505051205 52 288 0.0 2.0 0.00 0.00 0.00 82 1010.9
20260505050705 52 288 0.0 1.0 0.00 0.00 0.00 82 1010.9
20260505041704 52 288 0.0 1.0 0.00 0.00 0.00 81 1010.9
20260505041204 52 288 0.0 1.0 0.00 0.00 0.00 81 1010.8
20260505040706 52 288 0.0 1.0 0.00 0.00 0.00 81 1010.8
20260505035705 52 288 0.0 1.0 0.00 0.00 0.00 81 1010.9
20260505035204 52 288 0.0 1.0 0.00 0.00 0.00 81 1010.9
20260505034704 52 288 0.0 1.0 0.00 0.00 0.00 81 1010.9
20260505034205 52 288 0.0 1.0 0.00 0.00 0.00 81 1010.8
20260505033705 52 288 0.0 1.0 0.00 0.00 0.00 81 1010.8
20260505033205 52 288 0.0 1.0 0.00 0.00 0.00 80 1010.9
20260505032704 52 288 0.0 1.0 0.00 0.00 0.00 80 1011.0
20260505032204 52 288 0.0 1.0 0.00 0.00 0.00 80 1011.0
20260505031704 52 288 0.0 1.0 0.00 0.00 0.00 80 1011.0
20260505030204 52 288 0.0 1.0 0.00 0.00 0.00 80 1011.0
20260505025705 52 288 0.0 1.0 0.00 0.00 0.00 80 1011.2
20260505025205 52 288 0.0 1.0 0.00 0.00 0.00 80 1011.1
20260505024704 52 289 0.0 1.0 0.00 0.00 0.00 80 1011.1
20260505024211 53 289 0.0 1.0 0.00 0.00 0.00 79 1011.1
20260505023205 53 289 0.0 1.0 0.00 0.00 0.00 79 1011.2
20260505022731 53 289 0.0 1.0 0.00 0.00 0.00 79 1011.2
20260505022204 53 289 0.0 2.0 0.00 0.00 0.00 79 1011.2
20260505021704 53 289 0.0 2.0 0.00 0.00 0.00 79 1011.1
20260505021204 53 289 0.0 2.0 0.00 0.00 0.00 79 1011.2
20260505020704 53 290 0.0 1.0 0.00 0.00 0.00 79 1011.2
20260505015704 53 290 0.0 1.0 0.00 0.00 0.00 79 1011.1
20260505015205 53 290 0.0 1.0 0.00 0.00 0.00 79 1011.1
20260505014704 53 290 0.0 1.0 0.00 0.00 0.00 79 1011.1
20260505014205 53 290 0.0 1.0 0.00 0.00 0.00 79 1011.1
20260505013704 53 290 0.0 1.0 0.00 0.00 0.00 79 1011.2
20260505013207 53 290 0.0 2.0 0.00 0.00 0.00 79 1011.3
20260505011704 53 290 0.0 1.0 0.00 0.00 0.00 80 1011.6
20260505011204 53 290 0.0 1.0 0.00 0.00 0.00 80 1011.7
20260505010704 53 290 0.0 1.0 0.00 0.00 0.00 80 1011.8
20260505010205 53 290 0.0 1.0 0.00 0.00 0.00 80 1011.7
20260505005204 53 290 0.0 2.0 0.00 0.00 0.00 80 1011.8
20260505004704 53 290 0.0 2.0 0.00 0.00 0.00 80 1011.7
20260505004205 53 290 0.0 1.0 0.00 0.00 0.00 80 1011.7
20260505003705 53 290 0.0 1.0 0.00 0.00 0.00 81 1011.7
20260505003204 53 290 0.0 2.0 0.00 0.00 0.00 81 1011.7
20260505002705 53 290 0.0 2.0 0.00 0.00 0.00 81 1011.7
20260505002205 53 290 0.0 2.0 0.00 0.00 0.00 81 1011.8
20260505001704 53 289 0.0 1.0 0.00 0.00 0.00 81 1011.8
20260505001205 53 289 0.0 1.0 0.00 0.00 0.00 81 1011.9
20260505000707 54 289 0.0 1.0 0.00 0.00 0.00 81 1011.9
20260504235705 54 289 0.0 2.0 0.00 0.00 0.00 81 1011.9
20260504235204 54 289 0.0 2.0 0.00 0.00 0.00 82 1011.9
20260504234706 54 289 0.0 2.0 0.00 0.00 0.00 81 1012.0
20260504234205 54 289 0.0 2.0 0.00 0.00 0.00 82 1012.0
20260504233705 54 289 0.0 2.0 0.00 0.00 0.00 82 1012.1
20260504233204 54 289 0.0 2.0 0.00 0.00 0.00 82 1012.1
20260504232710 54 292 0.0 1.0 0.00 0.00 0.00 82 1012.2
20260504232205 54 296 0.0 1.0 0.00 0.00 0.00 82 1012.1
20260504231705 54 296 0.0 2.0 0.00 0.00 0.00 82 1012.1
20260504231214 54 296 0.0 2.0 0.00 0.00 0.00 82 1012.2
20260504225705 55 296 0.0 1.0 0.00 0.00 0.00 82 1012.1
20260504225205 55 298 0.0 2.0 0.00 0.00 0.00 82 1012.1
20260504224704 55 298 0.0 2.0 0.00 0.00 0.00 82 1012.1
20260504224204 55 298 0.0 1.0 0.00 0.00 0.00 83 1012.0
20260504223706 55 298 0.0 1.0 0.00 0.00 0.00 83 1012.1
20260504222705 55 298 0.0 1.0 0.00 0.00 0.00 83 1012.1
20260504221704 56 298 0.0 1.0 0.00 0.00 0.00 83 1012.1
20260504221205 56 298 0.0 1.0 0.00 0.00 0.00 83 1012.0
20260504220705 56 298 0.0 1.0 0.00 0.00 0.00 83 1012.0
20260504215205 56 298 0.0 2.0 0.00 0.00 0.00 83 1012.1
20260504214705 56 298 0.0 2.0 0.00 0.00 0.00 83 1012.1
20260504214204 56 298 0.0 1.0 0.00 0.00 0.00 83 1012.1
20260504213704 56 299 0.0 1.0 0.00 0.00 0.00 83 1012.1
20260504212204 56 299 0.0 0.0 0.00 0.00 0.00 83 1012.1
20260504211704 56 299 0.0 1.0 0.00 0.00 0.00 83 1012.1
20260504211204 56 299 0.0 1.0 0.00 0.00 0.00 83 1012.1
20260504210704 56 299 0.0 1.0 0.00 0.00 0.00 83 1012.1
20260504210204 56 299 0.0 1.0 0.00 0.00 0.00 83 1012.2
20260504205704 56 299 0.0 1.0 0.00 0.00 0.00 83 1012.1
20260504205204 56 299 0.0 1.0 0.00 0.00 0.00 83 1012.1
20260504204704 56 299 0.0 1.0 0.00 0.00 0.00 83 1012.1
20260504204204 56 299 0.0 0.0 0.00 0.00 0.00 83 1012.1
20260504203704 56 299 0.0 1.0 0.00 0.00 0.00 83 1012.1
20260504203206 56 299 0.0 1.0 0.00 0.00 0.00 83 1012.2
20260504202704 56 299 0.0 1.0 0.00 0.00 0.00 83 1012.1
20260504202204 56 299 0.0 1.0 0.00 0.00 0.00 83 1012.2
20260504201704 57 299 0.0 1.0 0.00 0.00 0.00 83 1012.2
20260504201205 57 299 0.0 1.0 0.00 0.00 0.00 83 1012.2
20260504200204 57 299 0.0 1.0 0.00 0.00 0.00 83 1012.1
20260504195705 57 299 0.0 1.0 0.00 0.00 0.00 83 1012.1
20260504195204 57 299 0.0 1.0 0.00 0.00 0.00 82 1012.1
20260504194706 57 299 0.0 1.0 0.00 0.00 0.00 82 1012.0
20260504194205 57 299 0.0 1.0 0.00 0.00 0.00 82 1011.9
20260504193704 57 299 0.0 1.0 0.00 0.00 0.00 82 1011.8
20260504193204 58 299 0.0 2.0 0.00 0.00 0.00 82 1011.8
20260504192705 58 299 0.0 2.0 0.00 0.00 0.00 82 1011.8
20260504192204 58 299 0.0 1.0 0.00 0.00 0.00 81 1011.8
20260504191205 58 299 0.0 2.0 0.00 0.00 0.00 81 1011.7
20260504190204 59 300 0.0 2.0 0.00 0.00 0.00 79 1011.6
20260504185705 59 299 0.0 1.0 0.00 0.00 0.00 79 1011.5
20260504185204 59 299 0.0 2.0 0.00 0.00 0.00 78 1011.5
20260504184705 59 299 0.0 2.0 0.00 0.00 0.00 78 1011.5
20260504184204 59 299 0.0 2.0 0.00 0.00 0.00 78 1011.5
20260504183705 59 299 0.0 2.0 0.00 0.00 0.00 77 1011.5
20260504183208 60 299 0.0 2.0 0.00 0.00 0.00 76 1011.5
20260504182704 60 299 0.0 1.0 0.00 0.00 0.00 76 1011.4
20260504182204 60 299 0.0 3.0 0.00 0.00 0.00 76 1011.4
20260504181704 61 299 0.0 3.0 0.00 0.00 0.00 76 1011.3
20260504181204 61 299 0.0 3.0 0.00 0.00 0.00 76 1011.3
20260504180704 61 298 1.0 3.0 0.00 0.00 0.00 77 1011.3
20260504180203 61 296 1.0 2.0 0.00 0.00 0.00 77 1011.4
20260504175704 60 296 0.0 2.0 0.00 0.00 0.00 78 1011.4
20260504175204 60 296 0.0 2.0 0.00 0.00 0.00 78 1011.4
20260504174704 60 296 1.0 4.0 0.00 0.00 0.00 78 1011.4
20260504173704 60 296 0.0 4.0 0.00 0.00 0.00 77 1011.5
20260504173204 60 302 1.0 4.0 0.00 0.00 0.00 78 1011.4
20260504172704 60 302 1.0 4.0 0.00 0.00 0.00 78 1011.4
20260504172204 60 300 1.0 4.0 0.00 0.00 0.00 78 1011.5
20260504171703 60 299 1.0 3.0 0.00 0.00 0.00 77 1011.5
20260504171205 60 292 0.0 4.0 0.00 0.00 0.00 78 1011.5
20260504170705 60 290 0.0 4.0 0.00 0.00 0.00 77 1011.6
20260504170205 60 290 1.0 3.0 0.00 0.00 0.00 78 1011.6
20260504160204 62 237 0.0 2.0 0.00 0.00 0.00 78 1011.6
20260504150705 60 237 0.0 2.0 0.00 0.00 0.00 79 1011.7
20260504150205 60 237 0.0 2.0 0.00 0.00 0.00 79 1011.7
20260504141205 60 238 1.0 1.0 0.00 0.00 0.00 77 1011.8
20260504140204 60 238 0.0 1.0 0.00 0.00 0.00 78 1011.8
20260504130704 60 250 0.0 2.0 0.00 0.00 0.00 78 1011.9
20260504130204 60 250 0.0 2.0 0.00 0.00 0.00 78 1011.9
20260504120204 59 250 0.0 2.0 0.00 0.00 0.00 81 1011.9
20260504110704 58 250 0.0 2.0 0.00 0.00 0.00 82 1012.1
20260504110204 57 250 0.0 2.0 0.00 0.00 0.00 82 1012.1
20260504100204 57 248 0.0 1.0 0.00 0.00 0.00 82 1012.0